Simultaneous Nadir Overpasses (SNOs) Predictions

Prediction of SNOs between GOES-17 and LANDSAT-8 Satellite Orbit:

Table of predicted SNOs for the next 14.0 days since TLE Epoch: 6/8/2024
Index Date Time (GOES-17) GOES-17 Lat,Lon LANDSAT-8 Lat,Lon Distance(km) Time Diff (sec)
1 06/08/2024 05:01:16 -0.01,-104.70 0.42,-102.56 243.43 6
2 06/08/2024 17:23:58 -0.00,-104.71 0.64,-107.72 342.07 80
3 06/10/2024 17:09:07 -0.03,-104.71 -0.03,-104.77 6.30 80
4 06/12/2024 16:59:35 -0.04,-104.71 -0.67,-101.81 331.08 80
5 06/13/2024 05:20:59 0.04,-104.71 -0.42,-107.00 259.78 80
6 06/15/2024 05:06:06 0.04,-104.71 0.19,-104.03 78.02 80
7 06/17/2024 04:53:53 0.04,-104.71 0.83,-101.06 416.03 80
8 06/17/2024 17:15:08 -0.04,-104.72 0.27,-106.21 168.92 80
9 06/19/2024 17:02:54 -0.04,-104.72 -0.35,-103.24 169.02 80
10 06/20/2024 05:26:56 0.03,-104.72 -0.78,-108.42 421.58 80
